[[{"header":{"parameterUnit":"m.s-1","parameterCategory":1,"la1":30.2992,"la2":30.254,"lo1":-89.0895,"lo2":-89.0443,"dy":0.0025,"dx":0.0025,"nx":19,"ny":19,"refTime":"2026-03-13T21:00:00:Z","depth":0,"parameterNumber":2,"parameterNumberName":"U-component_of_WINDS"},"data":[0,0,0,-2.3948,-2.3949,-2.3994,-2.3994,-2.4053,-2.4053,0,0,0,0,0,0,0,0,0,0,0,-2.3936,-2.3936,-2.3948,-2.3949,-2.3994,-2.3994,-2.4052,-2.4053,0,0,0,0,0,0,0,0,0,0,0,-2.3935,-2.3936,-2.3936,-2.395,-2.3994,-2.3994,-2.4052,-2.4018,0,0,0,0,0,0,0,0,0,0,-2.3975,-2.3963,-2.3936,-2.3936,-2.395,-2.3994,-2.3994,-2.4017,-2.402,-2.4033,0,-2.4044,0,-2.4049,-2.4057,-2.4057,0,0,0,-2.3949,-2.396,-2.3972,-2.3937,-2.395,-2.3994,-2.3974,-2.4019,-2.4023,-2.4038,-2.4044,-2.4046,-2.405,-2.4057,-2.4058,-2.4128,-2.4129,0,0,-2.3947,-2.3944,-2.3969,-2.3975,-2.3967,-2.3972,-2.3975,-2.4021,-2.4028,-2.4045,-2.4048,-2.4051,-2.4058,-2.4058,-2.4128,-2.4128,0,0,0,-2.394,-2.3942,-2.3953,-2.3972,-2.398,-2.3974,-2.3977,-2.4026,-2.403,-2.4048,-2.4052,-2.4058,-2.4059,-2.4128,-2.4128,-2.4141,0,0,0,-2.3938,-2.3938,-2.3952,-2.395,-2.3979,-2.4004,-2.3981,-2.4027,-2.4032,-2.4052,-2.4058,-2.4059,-2.4127,-2.4128,-2.414,-2.4147,0,0,0,-2.3933,-2.3937,-2.3944,-2.395,-2.3969,-2.4003,-2.4009,-2.4028,-2.4034,-2.4057,-2.406,-2.4127,-2.4128,-2.4139,-2.4145,-2.4164,0,0,0,-2.3926,-2.3955,-2.3944,-2.3978,-2.3968,-2.401,-2.4009,-2.4041,-2.4062,-2.4058,-2.4127,-2.4128,-2.4138,-2.4144,-2.4163,-2.4179,-2.4185,0,0,-2.3961,-2.3959,-2.398,-2.3971,-2.4014,-2.4004,-2.4049,-2.4072,-2.4078,-2.4111,-2.4113,-2.414,-2.4145,-2.4164,-2.4224,-2.4229,0,0,0,-2.399,-2.4004,-2.4016,-2.4036,-2.4054,-2.407,-2.4087,-2.4095,-2.4124,-2.4094,-2.4153,-2.4156,-2.4167,-2.4174,-2.4179,-2.4188,-2.4132,-2.4132,-2.4132,-2.4035,-2.404,-2.4074,-2.4084,-2.4104,-2.4121,-2.4137,-2.4152,-2.4152,-2.4166,-2.4175,-2.4211,-2.422,-2.4223,-2.4233,-2.4185,-2.4185,-2.4185,-2.4185,-2.4086,-2.4107,-2.4106,-2.4139,-2.4144,-2.4172,-2.419,-2.4189,-2.4216,-2.4204,-2.4214,-2.4199,-2.4228,-2.4237,-2.4186,-2.4186,-2.4186,-2.4186,-2.4186,-2.4115,-2.4126,-2.4136,-2.4165,-2.4188,-2.4198,-2.4224,-2.4229,-2.4234,-2.4244,-2.4254,-2.4254,-2.4254,-2.4249,-2.4249,-2.4249,-2.4249,-2.4249,-2.4249,-2.4141,-2.4151,-2.4172,-2.4194,-2.4207,-2.4226,-2.4244,-2.4258,-2.4274,-2.4276,-2.4276,-2.4274,-2.423,-2.4218,-2.4251,-2.4251,-2.425,-2.425,-2.425,-2.4189,-2.4179,-2.4211,-2.4224,-2.425,-2.4272,-2.4279,-2.4307,-2.4319,-2.4332,-2.4329,-2.4295,-2.4294,-2.4291,-2.4281,-2.4327,-2.4327,-2.4327,-2.4327,-2.4213,-2.4213,-2.4246,-2.4267,-2.4289,-2.4298,-2.4335,-2.4349,-2.4363,-2.4371,-2.4366,-2.4354,-2.435,-2.4351,-2.4346,-2.4337,-2.4397,-2.4397,-2.4397,-2.4242,-2.4245,-2.4274,-2.4287,-2.4308,-2.4326,-2.4361,-2.4386,-2.44,-2.44,-2.4378,-2.4375,-2.4356,-2.4349,-2.4347,-2.434,-2.4323,0,0]},{"header":{"parameterUnit":"m.s-1","parameterCategory":1,"la1":30.2992,"la2":30.254,"lo1":-89.0895,"lo2":-89.0443,"dy":0.0025,"dx":0.0025,"nx":19,"ny":19,"refTime":"2026-03-13T21:00:00:Z","depth":0,"parameterNumber":3,"parameterNumberName":"V-component_of_WINDS"},"data":[0,0,0,6.8524,6.8529,6.8737,6.8738,6.8989,6.8991,0,0,0,0,0,0,0,0,0,0,0,6.8455,6.8456,6.8524,6.8529,6.8737,6.8738,6.8989,6.8991,0,0,0,0,0,0,0,0,0,0,0,6.8454,6.8456,6.8458,6.853,6.8737,6.8738,6.8988,6.8836,0,0,0,0,0,0,0,0,0,0,6.8636,6.8564,6.8455,6.8458,6.8531,6.8737,6.8738,6.8829,6.8845,6.8889,0,6.8926,0,6.8963,6.9007,6.9008,0,0,0,6.8534,6.855,6.8614,6.8458,6.8533,6.8736,6.8645,6.8838,6.8857,6.891,6.893,6.894,6.8967,6.9009,6.901,6.9249,6.925,0,0,6.8522,6.8487,6.8601,6.8626,6.8595,6.8638,6.8651,6.885,6.8868,6.8931,6.8946,6.8971,6.901,6.9012,6.9248,6.9249,0,0,0,6.8486,6.8479,6.8538,6.8615,6.8654,6.8644,6.8659,6.8859,6.8882,6.8949,6.8974,6.9012,6.9015,6.9247,6.9249,6.926,0,0,0,6.8479,6.8458,6.8533,6.8513,6.865,6.876,6.8663,6.8868,6.8891,6.8973,6.9012,6.9017,6.9246,6.9248,6.9258,6.9271,0,0,0,6.8444,6.8454,6.8481,6.8511,6.86,6.8757,6.8791,6.8874,6.8907,6.9008,6.9017,6.9246,6.9248,6.9256,6.9268,6.9326,0,0,0,6.8394,6.8485,6.8481,6.8592,6.8598,6.8763,6.879,6.8915,6.9003,6.9013,6.9246,6.9248,6.9255,6.9266,6.9323,6.9369,6.9385,0,0,6.8489,6.8495,6.8564,6.8566,6.8725,6.8734,6.8894,6.9006,6.9046,6.9179,6.9185,6.9259,6.9267,6.9325,6.9483,6.9495,0,0,0,6.8582,6.8631,6.8681,6.8765,6.8856,6.8935,6.9028,6.907,6.9185,6.9108,6.9296,6.9302,6.9338,6.9361,6.9372,6.9405,6.9258,6.9257,6.9257,6.8663,6.8714,6.8832,6.8909,6.899,6.9088,6.9158,6.9232,6.9255,6.9299,6.9338,6.9429,6.9455,6.9463,6.9497,6.9366,6.9366,6.9366,6.9366,6.8808,6.8886,6.8921,6.9048,6.9101,6.9207,6.9305,6.9319,6.9425,6.9402,6.9435,6.9406,6.9475,6.9507,6.9368,6.9367,6.9367,6.9367,6.9367,6.8867,6.8914,6.8967,6.9098,6.9193,6.9267,6.937,6.9413,6.9453,6.9487,6.9535,6.9535,6.9541,6.9507,6.9507,6.9508,6.9508,6.9508,6.9508,6.8909,6.8968,6.9051,6.9159,6.9221,6.9309,6.941,6.9472,6.9551,6.9575,6.9575,6.9596,6.9472,6.9441,6.9513,6.9512,6.9512,6.9511,6.9511,6.9037,6.9017,6.9144,6.9207,6.9339,6.9432,6.9488,6.9611,6.9668,6.9718,6.9733,6.9634,6.9642,6.9634,6.9609,6.9721,6.9721,6.9721,6.9721,6.9088,6.9099,6.9241,6.934,6.9441,6.9506,6.9649,6.973,6.9809,6.9848,6.9838,6.9808,6.9798,6.9812,6.98,6.9777,6.9929,6.9929,6.993,6.9172,6.9194,6.9308,6.9389,6.9497,6.9588,6.9725,6.9836,6.9921,6.9939,6.988,6.9871,6.9822,6.9804,6.9818,6.9799,6.9758,0,0]}]]